Change the Weather History Date:

Sunday, June 8, 2014

  Actual Average Record
Temperature  
Mean Temperature 81 °F -  
Max Temperature 89 °F 89 °F 94 °F (1981)
Min Temperature 73 °F 72 °F 62 °F (1975)
Cooling Degree Days 16    
Growing Degree Days 31 (Base 50)    
Moisture  
Dew Point 71 °F    
Average Humidity 77    
Maximum Humidity 87    
Minimum Humidity 57    
Precipitation  
Precipitation 0.79 in - - ()
Sea Level Pressure  
Sea Level Pressure 29.99 in    
Wind  
Wind Speed 5 mph (SSW)    
Max Wind Speed 13 mph    
Max Gust Speed 20 mph    
Visibility 9 miles    
Events Rain , Thunderstorm    
Averages and records for this station are not official NWS values.
T = Trace of Precipitation, MM = Missing Value Source: NWS Daily Summary

Daily Weather History Graph

Daily Weather History Graph

Search for Another Location

Airport or City:

Trip Planner

Search our weather history database for the weather conditions in past years. The results will help you decide how hot, cold, wet, or windy it might be!

Date:

Astronomy

Jun. 08, 2014 Rise Set
Actual Time 6:27 AM EDT 8:11 PM EDT
Civil Twilight 6:01 AM EDT 8:37 PM EDT
Nautical Twilight 5:30 AM EDT 9:09 PM EDT
Astronomical Twilight 4:57 AM EDT 9:42 PM EDT
Moon 3:51 PM EDT (6/8) 2:54 AM EDT (6/8)
Length of Visible Light 14h 36m
Length of Day
13h 44m
Waxing Gibbous, 77% of the Moon is Illuminated
Jun 8
Waxing Gibbous
Jun 13
Full
Jun 19
Last Quarter
Jun 27
New
Jul 5
First Quarter

Hourly Weather History & Observations

Time (EDT) Temp. Heat Index Dew Point Humidity Pressure Visibility Wind Dir Wind Speed Gust Speed Precip Events Conditions
12:53 AM 81.0 °F 85.8 °F 73.0 °F 77% 29.99 in 10.0 mi SSW 6.9 mph - N/A   Overcast
1:53 AM 81.0 °F 85.8 °F 73.0 °F 77% 29.99 in 10.0 mi WSW 4.6 mph - N/A   Overcast
2:23 AM 78.1 °F - 70.0 °F 76% 29.98 in 10.0 mi North 8.1 mph 19.6 mph N/A   Overcast
2:53 AM 75.9 °F - 66.0 °F 71% 29.98 in 10.0 mi NNE 8.1 mph - N/A   Mostly Cloudy
3:53 AM 75.9 °F - 66.0 °F 71% 29.96 in 10.0 mi SE 4.6 mph - N/A   Scattered Clouds
4:53 AM 77.0 °F - 66.9 °F 71% 29.94 in 10.0 mi SSW 3.5 mph - N/A   Clear
5:53 AM 78.1 °F - 68.0 °F 71% 29.95 in 10.0 mi Calm Calm - N/A   Partly Cloudy
6:53 AM 78.1 °F - 70.0 °F 76% 29.97 in 10.0 mi Calm Calm - N/A   Clear
7:53 AM 80.1 °F 83.6 °F 71.1 °F 74% 29.99 in 10.0 mi Calm Calm - N/A   Clear
8:53 AM 82.0 °F 86.3 °F 71.1 °F 69% 30.01 in 10.0 mi Variable 3.5 mph - N/A   Scattered Clouds
9:53 AM 84.9 °F 90.7 °F 72.0 °F 65% 30.01 in 10.0 mi NNE 3.5 mph - N/A   Partly Cloudy
10:53 AM 89.1 °F 96.0 °F 72.0 °F 57% 30.01 in 10.0 mi Calm Calm - N/A   Scattered Clouds
11:53 AM 84.0 °F 90.2 °F 73.0 °F 69% 30.01 in 10.0 mi East 9.2 mph - 0.00 in Rain , Thunderstorm Thunderstorms and Rain
12:02 PM 80.6 °F 85.4 °F 73.4 °F 79% 30.01 in 8.0 mi SE 12.7 mph 19.6 mph N/A Rain , Thunderstorm Thunderstorms and Rain
1:26 PM 73.0 °F - 69.1 °F 87% 30.01 in 5.0 mi SSE 4.6 mph - 0.77 in Rain Rain
1:33 PM 73.9 °F - 70.0 °F 87% 30.00 in 5.0 mi SSE 5.8 mph - 0.78 in Rain Light Rain
1:53 PM 73.9 °F - 69.1 °F 85% 30.00 in 5.0 mi SW 5.8 mph - 0.78 in Rain Light Rain
2:53 PM 75.9 °F - 70.0 °F 82% 29.99 in 10.0 mi SW 4.6 mph - 0.01 in   Scattered Clouds
3:53 PM 78.8 °F - 71.6 °F 78% 29.96 in 10.0 mi SSE 3.5 mph - N/A   Mostly Cloudy
4:53 PM 80.1 °F 85.1 °F 75.0 °F 85% 29.95 in 10.0 mi SSE 3.5 mph - N/A   Mostly Cloudy
5:53 PM 81.0 °F 86.7 °F 75.0 °F 82% 29.95 in 10.0 mi SW 6.9 mph - N/A   Scattered Clouds
6:53 PM 80.1 °F 84.2 °F 73.0 °F 79% 29.96 in 10.0 mi SW 6.9 mph - N/A   Scattered Clouds
7:53 PM 77.0 °F - 70.0 °F 79% 29.97 in 10.0 mi WSW 6.9 mph - N/A   Scattered Clouds
8:53 PM 75.9 °F - 70.0 °F 82% 29.98 in 10.0 mi West 5.8 mph - N/A   Scattered Clouds
9:53 PM 75.0 °F - 69.1 °F 82% 30.01 in 10.0 mi WSW 4.6 mph - N/A   Partly Cloudy
10:53 PM 75.0 °F - 69.1 °F 82% 30.01 in 10.0 mi WSW 3.5 mph - N/A   Mostly Cloudy
11:53 PM 75.0 °F - 70.0 °F 84% 30.02 in 10.0 mi WNW 3.5 mph - N/A   Mostly Cloudy